Regional Weather Roundup
Issued by NWS

Home | Current Version | Previous Version | Text Only | Print | Product List | Glossary Off
Versions: 1 2 3 4 5 6 7 8 9 10 11 12 13 14 15 16 17 18 19 20 21 22 23 24 25 26 27 28 29 30 31 32 33 34 35 36 37 38 39 40 41 42 43 44 45 46 47 48 49 50

000
ASUS43 KDMX 020007
RWRIA

WEATHER ROUNDUP FOR IOWA
NATIONAL WEATHER SERVICE DES MOINES IA
700 PM CDT MON SEP 01 2014

NOTE: "FAIR" INDICATES FEW OR NO CLOUDS BELOW 12,000 FEET WITH NO
SIGNIFICANT WEATHER AND/OR OBSTRUCTIONS TO VISIBILITY.

* - THESE STATIONS ARE NOT NWS STATIONS...THUS NOT UNDER NWS
QUALITY CONTROL.  THEY ALSO DO NOT REPORT WEATHER SUCH
AS PRECIPITATION OR FOG.

IAZ001>003-012>014-020>022-031>034-043>046-020100-
   NORTHWEST IOWA

CITY           SKY/WX    TMP DP  RH WIND       PRES   REMARKS
CARROLL *      CLEAR     72  66  83 CALM      29.85F
CHEROKEE *     MOCLDY    70  62  76 CALM      29.85S
DENISON *      CLEAR     72  68  88 CALM      29.84F
LE MARS *      PTCLDY    75  64  69 CALM      29.85S
ORANGE CITY *  CLEAR     75  63  64 CALM      29.85S
SHELDON *      CLEAR     72  63  73 W5        29.84R
SIOUX CITY     MOSUNNY   79  61  53 CALM      29.84F HX  80
6HR MIN TEMP:  75; 6HR MAX TEMP:  81;

SPENCER        CLEAR     74  61  63 W7        29.84S
6HR MIN TEMP:  73; 6HR MAX TEMP:  79;

STORM LAKE *   CLEAR     72  72 100 SW3       29.86R
$$

IAZ055>058-069>071-079>083-090>094-020100-
   SOUTHWEST IOWA

CITY           SKY/WX    TMP DP  RH WIND       PRES   REMARKS
ATLANTIC *     PTCLDY    73  66  78 CALM      29.88R
AUDUBON *      CLEAR     73  68  83 CALM      29.88S
CLARINDA *     PTCLDY    73  68  83 SW3       29.90S
COUNCIL BLFS * CLEAR     73  66  78 S6        29.87S
CRESTON *      CLEAR     72  66  83 NW5       29.89R
HARLAN  *      CLEAR     70  68  94 SW6       29.92S
LAMONI         MOCLDY    73  66  78 SW5       29.86F
6HR MIN TEMP:  73; 6HR MAX TEMP:  79; 6HR PCP: TRACE;

RED OAK *      CLOUDY    72  68  88 CALM      29.90R
SHENANDOAH *   CLEAR     73  68  83 CALM      29.90R
$$

IAZ047>049-059>061-072>074-084-020100-
   CENTRAL IOWA

CITY           SKY/WX    TMP DP  RH WIND       PRES   REMARKS
AMES           CLOUDY    72  63  73 W6        29.85S
6HR MIN TEMP:  72; 6HR MAX TEMP:  79;

ANKENY *       CLEAR     75  59  57 NW7       29.85F
CHARITON *     PTCLDY    73  66  78 NW5       29.86F
DES MOINES     MOCLDY    76  63  64 W5        29.85F
6HR MIN TEMP:  76; 6HR MAX TEMP:  81;

GRINNELL*      MOCLDY    72  66  83 CALM      29.85F
KNOXVILLE *    MOCLDY    72  66  83 W6        29.84F
MARSHALLTOWN   MOCLDY    72  65  78 SW5       29.84R
6HR MIN TEMP:  72; 6HR MAX TEMP:  79;

PELLA *        MOCLDY    73  65  76 W5        29.86S
PERRY *          N/A     72  66  83 CALM      29.86S
$$

IAZ004>006-015-016-023>025-035-036-020100-
   NORTH CENTRAL IOWA

CITY           SKY/WX    TMP DP  RH WIND       PRES   REMARKS
ALGONA *       PTCLDY    70  59  68 CALM      29.85S
CLARION *      CLEAR     72  64  78 W5        29.84F
ESTHERVILLE    PTCLDY    71  58  63 CALM      29.83F
6HR MIN TEMP:  68; 6HR MAX TEMP:  77;

FORT DODGE *   MOCLDY    70  63  78 CALM      29.85F
MASON CITY     PTCLDY    70  58  65 W10       29.85R
6HR MIN TEMP:  70; 6HR MAX TEMP:  78;

FOREST CITY *  CLEAR     72  57  60 CALM      29.84R
IOWA FALLS *     N/A     72  63  73 W5        29.85F
$$

IAZ007>011-017>019-026>030-037>042-050>054-066-020100-
   NORTHEAST IOWA

CITY           SKY/WX    TMP DP  RH WIND       PRES   REMARKS
CEDAR RAPIDS   PTCLDY    74  65  73 W8        29.82S
6HR MIN TEMP:  74; 6HR MAX TEMP:  80;

CHARLES CITY * CLEAR     70  63  78 W5        29.83S
CLINTON *      MOCLDY    77  66  69 W13       29.82S
DECORAH *      CLEAR     72  59  64 VRB3      29.81R
DUBUQUE        PTCLDY    73  64  73 W7        29.82R
6HR MIN TEMP:  71; 6HR MAX TEMP:  79; 6HR PCP: TRACE;

MONTICELLO *   PTCLDY    75  66  73 W7        29.81S
OELWEIN *      CLEAR     70  61  73 NW7       29.83S
WATERLOO       PTCLDY    73  59  61 W6        29.81S
6HR MIN TEMP:  73; 6HR MAX TEMP:  79;

$$

IAZ064-065-067-068-078-020100-
   EAST CENTRAL IOWA

CITY           SKY/WX    TMP DP  RH WIND       PRES   REMARKS
DAVENPORT      PTCLDY    75  66  73 W9G21     29.82R
6HR MIN TEMP:  75; 6HR MAX TEMP:  81;

IOWA CITY      PTCLDY    77  66  68 W10       29.83S
6HR MIN TEMP:  76; 6HR MAX TEMP:  81;

MT. PLEASANT * PTCLDY    77  64  63 SW5       29.83F
MUSCATINE *    PTCLDY    77  66  69 W8        29.82S
QUAD CITIES    MOCLDY    78  66  66 W9        29.80S HX  80
6HR MIN TEMP:  77; 6HR MAX TEMP:  82;

$$

IAZ062-063-075>077-085>089-095>099-020100-
   SOUTHEAST IOWA

CITY           SKY/WX    TMP DP  RH WIND       PRES   REMARKS
BURLINGTON     PTCLDY    76  68  76 SW8       29.83F
6HR MIN TEMP:  76; 6HR MAX TEMP:  81; 6HR PCP: TRACE;

FAIRFIELD *    MOCLDY    75  68  78 W6        29.84F
FORT MADISON * CLEAR     77  70  78 SW5       29.84F
KEOKUK *       CLEAR     77  70  78 S5        29.83F
OSKALOOSA *      N/A     74  67  78 W5        29.85S
CENTERVILLE *  PTCLDY    73  68  83 W6        29.87F
OTTUMWA        MOCLDY    75  66  73 NW6       29.84F
6HR MIN TEMP:  74; 6HR MAX TEMP:  81;

WASHINGTON *   MOCLDY    75  68  78 W8        29.83F
$$

ABBREVIATIONS USED IN REMARKS
   TC - TEMPERATURES IN CELSIUS
  WCI - WIND CHILL INDEX
   HX - HEAT INDEX
  VSB - VISIBILITY
$$



USA.gov is the U.S. government's official web portal to all federal, state and local government web resources and services.